カタログに戻る

COSMOS 2251 DEB

運用中LEO
NORAD 33762·DEBRIS·🇷🇺 Russia

打ち上げ Jun 16, 1993 から Plesetsk Cosmodrome

Loading…

次のパス (今後24時間)

TLE

最新Source: Space-Track

元期: Sep 14, 2026, 05:05 UTC

1 33762U 93036K   26257.21214498  .00000076  00000-0  36640-4 0  9991
2 33762  74.0424 166.3747 0015070 169.2326 343.5345 14.33732755919950

AllMySatでCOSMOS 2251 DEBをリアルタイム追跡

Download on the App Store